Location: ??
(35.4627°N, 139.3695°E)
Time: 04:14:43
(UTC+00:00)

Cosmos 1933 - Pass Details

Date: 25 November 2020
Orbit: 546 x 564 km, 82.5° (Epoch: 20 January)

Event Time Altitude Azimuth Distance (km) Brightness Sun altitude
Exits shadow 20:21:34 - 339° (NNW) 1,990 5.8 -13.6°
Reaches altitude 10° 20:21:54 10° 337° (NNW) 1,863 5.6 -13.5°
Maximum altitude 20:25:44 40° 268° (W) 846 3.8 -12.8°
Drops below altitude 10° 20:29:33 10° 199° (SSW) 1,848 6.0 -12.0°
Sets 20:31:48 0° 191° (S) 2,738 7.0 -11.6°
